1485158400.57,57332,10.06,73818.8,-2.79,-40.03,-40.47,0,*5C
1485158401.83,57333,10.06,73820.0,-2.81,-39.79,-40.47,0,*59
1485158403.11,57334,10.06,73818.5,-2.81,-39.53,-40.09,0,*5C
1485158404.35,57335,10.06,73820.8,-2.79,-39.65,-40.21,0,*55
1485158405.6,57336,10.06,73820.5,-2.81,-39.35,-40.09,0,*5E
1485158406.86,57337,10.06,73818.5,-2.81,-39.47,-40.09,0,*5A
1485158408.1,57338,10.06,73822.3,-2.79,-39.65,-40.29,0,*50
1485158409.37,57339,10.06,73820.0,-2.79,-39.59,-40.21,0,*56
1485158410.6,57340,10.06,73822.3,-2.79,-39.41,-39.91,0,*54
1485158411.86,57341,10.06,73822.5,-2.81,-39.65,-40.09,0,*5B
1485158413.07,57342,10.06,73824.5,-2.79,-39.65,-40.03,0,*55
1485158414.34,57343,10.06,73822.8,-2.81,-39.15,-39.65,0,*5A
1485158415.58,57344,10.06,73820.5,-2.79,-39.09,-39.59,0,*58
1485158416.78,57345,10.06,73820.5,-2.79,-38.85,-39.47,0,*53
1485158418.01,57346,10.06,73822.5,-2.79,-38.73,-39.41,0,*5F
1485158419.29,57347,10.06,73822.3,-2.77,-38.91,-39.59,0,*55
1485158420.57,57348,10.06,73820.5,-2.75,-38.67,-39.23,0,*5C
1485158421.84,57349,10.06,73816.8,-2.75,-39.59,-40.35,0,*58
1485158423.11,57350,10.06,73820.0,-2.75,-39.59,-40.15,0,*52
1485158424.35,57351,10.06,73820.8,-2.77,-39.65,-40.47,0,*59
1485158425.64,57352,10.06,73824.0,-2.77,-39.71,-40.41,0,*59
1485158426.9,57353,10.06,73822.3,-2.77,-39.41,-39.85,0,*5D
1485158428.16,57354,10.06,73824.0,-2.77,-39.41,-39.91,0,*5F
1485158429.42,57355,10.06,73820.3,-2.77,-39.65,-40.41,0,*5B
1485158430.68,57356,10.06,73822.8,-2.77,-39.65,-40.21,0,*5E
1485158431.96,57357,10.06,73822.8,-2.75,-39.59,-40.15,0,*55
1485158433.22,57358,10.06,73822.0,-2.77,-39.85,-40.41,0,*58
1485158434.45,57359,10.06,73820.3,-2.77,-39.85,-40.47,0,*5F
1485158435.69,57360,10.06,73822.0,-2.77,-39.85,-40.47,0,*55
1485158436.98,57361,10.06,73820.0,-2.77,-39.59,-40.21,0,*55
1485158438.25,57362,10.06,73822.0,-2.77,-39.65,-40.41,0,*5F
1485158439.5,57363,10.06,73820.8,-2.77,-39.41,-39.85,0,*5E
1485158440.77,57364,10.06,73822.8,-2.77,-39.59,-40.03,0,*50
1485158442.03,57365,10.06,73820.5,-2.77,-39.65,-40.29,0,*56
1485158443.27,57366,10.13,73824.5,-2.75,-39.65,-40.35,0,*5A
1485158444.55,57367,10.06,73816.0,-2.77,-39.71,-40.29,0,*51
1485158445.81,57368,10.06,73822.3,-2.77,-39.65,-40.29,0,*5B
1485158447.05,57369,10.13,73822.5,-2.77,-39.47,-40.03,0,*52
1485158448.28,57370,10.06,73822.5,-2.77,-39.85,-40.47,0,*54
1485158449.54,57371,10.06,73820.3,-2.77,-39.65,-40.21,0,*5B
1485158450.8,57372,10.06,73820.3,-2.77,-39.41,-39.91,0,*5B
1485158452.06,57373,10.13,73824.5,-2.77,-39.59,-40.03,0,*56
1485158453.33,57374,10.06,73822.5,-2.77,-39.59,-40.03,0,*51
1485158454.56,57375,10.06,73824.8,-2.77,-39.47,-40.03,0,*5F
1485158455.82,57376,10.13,73824.8,-2.77,-39.65,-40.29,0,*54
1485158457.05,57377,10.06,73822.0,-2.77,-39.85,-40.47,0,*53
1485158458.32,57378,10.06,73822.3,-2.77,-39.65,-40.29,0,*5A
1485158459.6,57379,10.13,73826.5,-2.77,-39.71,-40.29,0,*5E
1485158460.89,57380,10.13,73824.0,-2.77,-39.71,-40.21,0,*50
1485158462.16,57381,10.13,73824.8,-2.75,-39.59,-40.15,0,*5E
1485158463.45,57382,10.06,73822.0,-2.77,-39.59,-40.21,0,*58
1485158464.72,57383,10.06,73820.0,-2.75,-39.65,-40.21,0,*54
1485158465.98,57384,10.13,73822.3,-2.77,-39.65,-40.09,0,*5B
1485158467.25,57385,10.13,73820.8,-2.77,-39.65,-40.29,0,*58
1485158468.51,57386,10.06,73822.3,-2.77,-39.85,-40.29,0,*55
1485158469.77,57387,10.13,73822.5,-2.77,-39.65,-40.21,0,*52
1485158471.03,57388,10.13,73820.5,-2.79,-39.59,-40.21,0,*5C
1485158472.3,57389,10.13,73824.0,-2.77,-39.65,-40.09,0,*56
1485158473.56,57390,10.13,73820.5,-2.77,-39.47,-40.09,0,*5E
1485158474.83,57391,10.13,73824.8,-2.75,-40.03,-40.41,0,*5F
1485158476.06,57392,10.13,73822.0,-2.77,-39.91,-40.47,0,*5D
1485158477.35,57393,10.13,73820.0,-2.77,-39.71,-40.21,0,*52
1485158478.64,57394,10.13,73822.0,-2.77,-39.71,-40.29,0,*5D
1485158479.92,57395,10.13,73822.8,-2.77,-39.71,-40.29,0,*5C
1485158481.19,57396,10.13,73820.0,-2.77,-39.91,-40.59,0,*56
1485158482.48,57397,10.13,73822.3,-2.77,-39.71,-40.41,0,*50
1485158483.75,57398,10.13,73820.5,-2.75,-39.65,-40.21,0,*5E
1485158485.04,57399,10.13,73820.0,-2.77,-39.71,-40.21,0,*58
1485158486.33,57400,10.13,73820.5,-2.75,-39.59,-40.29,0,*5F
1485158487.6,57401,10.06,73818.8,-2.77,-39.65,-40.09,0,*51
1485158488.86,57402,10.13,73820.8,-2.77,-39.59,-40.15,0,*50
1485158490.13,57403,10.13,73818.8,-2.77,-39.85,-40.41,0,*51
1485158491.36,57404,10.13,73816.3,-2.77,-40.03,-40.47,0,*50
1485158492.59,57405,10.13,73822.5,-2.77,-39.91,-40.47,0,*54
1485158493.86,57406,10.13,73816.0,-2.75,-39.59,-40.35,0,*54
1485158495.1,57407,10.13,73822.8,-2.75,-39.65,-40.35,0,*5A
1485158496.37,57408,10.13,73820.5,-2.77,-39.85,-40.41,0,*5A
1485158497.63,57409,10.13,73820.5,-2.77,-39.65,-40.21,0,*53
1485158498.89,57410,10.13,73818.5,-2.77,-39.65,-40.21,0,*5B
1485158500.15,57411,10.13,73816.3,-2.77,-39.65,-40.29,0,*52
1485158501.41,57412,10.13,73820.3,-2.77,-40.09,-40.65,0,*5D
1485158502.68,57413,10.13,73818.3,-2.75,-39.59,-40.03,0,*55
1485158503.92,57414,10.13,73816.3,-2.77,-39.91,-40.47,0,*54
1485158505.2,57415,10.13,73818.8,-2.77,-39.29,-39.59,0,*57
1485158506.45,57416,10.13,73820.3,-2.77,-39.41,-40.03,0,*5B
1485158507.71,57417,10.13,73822.0,-2.75,-39.35,-39.97,0,*58
1485158508.98,57418,10.13,73818.5,-2.77,-39.65,-40.29,0,*5B
1485158510.24,57419,10.13,73822.5,-2.75,-39.41,-39.85,0,*56
1485158511.52,57420,10.13,73822.5,-2.75,-39.41,-39.97,0,*5F
1485158512.78,57421,10.13,73820.3,-2.75,-39.41,-39.85,0,*5D
1485158514.07,57422,10.13,73820.5,-2.75,-39.41,-39.97,0,*5D
1485158515.36,57423,10.13,73820.5,-2.75,-39.41,-39.97,0,*5C
1485158516.62,57424,10.13,73820.8,-2.75,-39.41,-39.85,0,*58
1485158517.86,57425,10.13,73820.8,-2.75,-39.65,-40.35,0,*5A
1485158519.15,57426,10.13,73822.3,-2.75,-39.23,-39.79,0,*5D
1485158520.41,57427,10.13,73822.5,-2.75,-39.23,-39.85,0,*5F
1485158521.67,57428,10.13,73824.5,-2.75,-39.23,-39.65,0,*5E
1485158522.94,57429,10.13,73820.3,-2.75,-39.65,-40.21,0,*53
1485158524.17,57430,10.13,73820.8,-2.73,-39.41,-39.85,0,*5B
1485158525.4,57431,10.13,73818.0,-2.73,-39.35,-39.79,0,*5A
1485158526.64,57432,10.13,73824.0,-2.69,-39.53,-40.35,0,*54
1485158527.91,57433,10.13,73822.5,-2.73,-39.79,-40.41,0,*55
1485158529.18,57434,10.13,73822.3,-2.69,-39.71,-40.29,0,*5F
1485158530.41,57435,10.13,73822.8,-2.73,-39.59,-40.03,0,*57
1485158531.68,57436,10.13,73822.0,-2.69,-39.29,-39.71,0,*53
1485158532.93,57437,10.13,73818.5,-2.73,-39.03,-39.53,0,*51
1485158534.19,57438,10.13,73822.0,-2.73,-39.41,-39.97,0,*50
1485158535.45,57439,10.13,73822.8,-2.69,-39.53,-39.97,0,*59
1485158536.7,57440,10.13,73820.5,-2.73,-39.53,-39.97,0,*5C
1485158537.97,57441,10.13,73822.0,-2.69,-39.15,-39.71,0,*5C
1485158539.24,57442,10.13,73826.3,-2.69,-39.15,-39.71,0,*5F
1485158540.48,57443,10.13,73820.3,-2.69,-39.53,-40.15,0,*50
1485158541.75,57444,10.13,73822.5,-2.69,-39.15,-39.71,0,*59
1485158542.95,57445,10.13,73822.3,-2.69,-38.97,-39.47,0,*56
1485158544.18,57446,10.13,73820.5,-2.69,-38.79,-39.35,0,*50
1485158545.42,57447,10.13,73820.0,-2.67,-39.35,-39.91,0,*58
1485158546.68,57448,10.13,73822.8,-2.67,-39.29,-39.91,0,*5A
1485158547.91,57449,10.13,73822.5,-2.65,-39.03,-39.65,0,*5A
1485158549.14,57450,10.19,73824.3,-2.65,-39.29,-39.85,0,*54
1485158550.37,57451,10.13,73824.8,-2.65,-39.09,-39.53,0,*5C
1485158551.58,57452,10.13,73820.5,-2.65,-39.47,-39.91,0,*5B
1485158552.84,57453,10.13,73820.8,-2.67,-39.79,-40.35,0,*55
1485158554.08,57454,10.13,73826.5,-2.65,-39.85,-40.41,0,*50
1485158555.32,57455,10.13,73824.3,-2.65,-39.47,-39.97,0,*5A
1485158556.56,57456,10.13,73822.5,-2.65,-39.47,-40.09,0,*50
1485158557.85,57457,10.19,73824.5,-2.67,-39.59,-40.29,0,*5E
1485158559.11,57458,10.13,73822.0,-2.67,-39.53,-40.15,0,*54
1485158560.34,57459,10.13,73822.3,-2.65,-39.41,-39.91,0,*56
1485158561.58,57460,10.13,73822.3,-2.65,-39.65,-40.21,0,*5F
1485158562.84,57461,10.13,73822.5,-2.67,-39.71,-40.47,0,*59
1485158564.09,57462,10.13,73822.8,-2.65,-39.53,-40.21,0,*58
1485158565.32,57463,10.13,73822.0,-2.65,-39.41,-39.85,0,*5A
1485158566.56,57464,10.13,73822.8,-2.65,-38.85,-39.29,0,*52
1485158567.78,57465,10.13,73820.3,-2.65,-39.29,-39.85,0,*52
1485158569.02,57466,10.13,73820.8,-2.65,-39.41,-39.91,0,*5A
1485158570.26,57467,10.13,73820.3,-2.65,-39.47,-40.09,0,*52
1485158571.51,57468,10.19,73820.0,-2.65,-39.53,-40.21,0,*52
1485158572.74,57469,10.13,73820.5,-2.65,-39.41,-39.85,0,*50
1485158573.97,57470,10.19,73820.5,-2.65,-39.09,-39.53,0,*5F
1485158575.21,57471,10.13,73820.8,-2.65,-39.41,-39.91,0,*5C
1485158576.45,57472,10.19,73822.3,-2.61,-39.47,-40.09,0,*52
1485158577.7,57473,10.19,73822.0,-2.63,-39.23,-39.85,0,*59
1485158578.96,57474,10.13,73816.5,-2.63,-39.41,-39.85,0,*5A
1485158580.19,57475,10.13,73818.8,-2.63,-38.73,-39.09,0,*5F
1485158581.47,57476,10.13,73814.8,-2.63,-38.67,-39.23,0,*51
1485158582.7,57477,10.19,73822.3,-2.61,-38.79,-39.35,0,*5A
1485158583.93,57478,10.19,73820.5,-2.61,-38.85,-39.29,0,*5B
1485158585.16,57479,10.19,73822.8,-2.61,-38.85,-39.41,0,*54
1485158586.38,57480,10.13,73818.3,-2.61,-38.97,-39.41,0,*51
1485158587.63,57481,10.13,73820.3,-2.59,-39.03,-39.47,0,*51
1485158588.87,57482,10.19,73818.5,-2.57,-39.09,-39.59,0,*59
1485158590.09,57483,10.19,73820.8,-2.59,-38.97,-39.47,0,*5F
1485158591.34,57484,10.13,73816.8,-2.57,-38.79,-39.29,0,*5E
1485158592.62,57485,10.19,73816.3,-2.59,-38.67,-39.23,0,*54
1485158593.84,57486,10.19,73818.0,-2.57,-38.97,-39.53,0,*51
1485158595.1,57487,10.19,73818.5,-2.57,-39.71,-40.29,0,*5A
1485158596.33,57488,10.13,73818.0,-2.57,-39.65,-40.21,0,*58
1485158597.62,57489,10.19,73822.8,-2.59,-39.15,-39.59,0,*51
1485158598.85,57490,10.19,73820.3,-2.57,-39.35,-39.97,0,*57
1485158600.09,57491,10.19,73822.5,-2.57,-39.59,-40.15,0,*58
1485158601.29,57492,10.19,73816.8,-2.57,-39.35,-39.91,0,*53
1485158602.58,57493,10.19,73818.8,-2.59,-39.97,-40.41,0,*57
1485158603.81,57494,10.19,73818.8,-2.59,-39.47,-40.15,0,*5C
1485158605.04,57495,10.19,73818.5,-2.57,-39.97,-40.35,0,*5C
1485158606.34,57496,10.19,73820.0,-2.59,-39.79,-40.41,0,*52
1485158607.63,57497,10.19,73820.0,-2.59,-39.59,-40.21,0,*57
1485158608.9,57498,10.19,73822.0,-2.59,-39.85,-40.41,0,*5F
1485158610.19,57499,10.19,73824.5,-2.59,-39.59,-40.21,0,*59
1485158611.44,57500,10.19,73820.0,-2.59,-39.41,-40.03,0,*51
1485158612.67,57501,10.19,73824.3,-2.59,-38.97,-39.47,0,*54
1485158613.86,57502,10.19,73822.8,-2.57,-38.73,-39.35,0,*56
1485158615.12,57503,10.19,73822.8,-2.59,-39.35,-39.79,0,*52
1485158616.37,57504,10.19,73822.3,-2.57,-39.29,-39.71,0,*5E
1485158617.6,57505,10.19,73826.8,-2.57,-39.53,-40.15,0,*5E
1485158618.83,57506,10.19,73826.3,-2.59,-39.47,-40.03,0,*51
1485158620.06,57507,10.19,73828.5,-2.57,-39.35,-39.97,0,*58
1485158621.29,57508,10.19,73826.3,-2.57,-39.09,-39.59,0,*5A
1485158622.56,57509,10.19,73820.8,-2.57,-39.15,-39.79,0,*54
1485158623.79,57510,10.19,73826.8,-2.55,-39.09,-39.65,0,*5E
1485158625.05,57511,10.19,73826.5,-2.55,-39.29,-39.85,0,*53
1485158626.28,57512,10.19,73826.3,-2.57,-39.09,-39.71,0,*5B
1485158627.5,57513,10.19,73820.5,-2.57,-38.79,-39.35,0,*5C
1485158628.73,57514,10.19,73822.3,-2.55,-38.85,-39.35,0,*5A
1485158630.01,57515,10.19,73820.8,-2.55,-38.91,-39.53,0,*5E
1485158631.27,57516,10.19,73826.0,-2.55,-39.09,-39.71,0,*5D
1485158632.48,57517,10.19,73826.3,-2.53,-39.09,-39.65,0,*5F
1485158633.72,57518,10.19,73822.0,-2.53,-39.47,-40.09,0,*5E
1485158634.95,57519,10.19,73822.5,-2.53,-39.29,-39.91,0,*58
1485158636.21,57520,10.19,73820.0,-2.55,-39.65,-40.21,0,*59
1485158637.47,57521,10.19,73822.0,-2.53,-39.71,-40.21,0,*5B
1485158638.71,57522,10.19,73822.0,-2.55,-39.85,-40.47,0,*55
1485158639.97,57523,10.19,73820.3,-2.55,-39.65,-40.09,0,*50
1485158641.26,57524,10.19,73822.3,-2.55,-39.71,-40.41,0,*5E
1485158642.52,57525,10.19,73820.8,-2.55,-39.65,-40.21,0,*5C
1485158643.8,57526,10.19,73820.8,-2.55,-39.53,-40.21,0,*5A
1485158645.03,57527,10.19,73814.0,-2.55,-40.03,-40.53,0,*55
1485158646.3,57528,10.19,73816.8,-2.55,-39.85,-40.41,0,*59
1485158647.56,57529,10.19,73820.0,-2.55,-39.71,-40.47,0,*55
1485158648.79,57530,10.19,73820.8,-2.55,-39.85,-40.47,0,*56
1485158650.05,57531,10.19,73822.0,-2.55,-39.35,-40.09,0,*56
1485158651.28,57532,10.19,73822.8,-2.55,-39.47,-40.03,0,*5A
1485158652.51,57533,10.19,73820.0,-2.55,-39.35,-39.91,0,*5B
1485158653.74,57534,10.19,73824.0,-2.55,-39.35,-39.91,0,*5C
1485158655.01,57535,10.19,73820.5,-2.53,-39.71,-40.29,0,*56
1485158656.23,57536,10.19,73826.0,-2.55,-39.35,-40.03,0,*5B
1485158657.46,57537,10.19,73820.5,-2.55,-39.35,-39.91,0,*5F
1485158658.72,57538,10.19,73822.0,-2.53,-39.29,-39.71,0,*55
1485158659.98,57539,10.19,73820.0,-2.55,-39.23,-39.65,0,*5D
1485158661.19,57540,10.19,73822.0,-2.53,-39.09,-39.65,0,*5D
1485158662.43,57541,10.19,73820.5,-2.53,-38.91,-39.65,0,*5C
1485158663.63,57542,10.19,73820.3,-2.53,-39.35,-39.91,0,*5B
1485158664.86,57543,10.19,73820.5,-2.53,-38.91,-39.35,0,*5B
1485158666.06,57544,10.19,73820.5,-2.53,-38.35,-39.09,0,*5D
1485158667.34,57545,10.19,73820.0,-2.51,-38.67,-39.15,0,*54
1485158668.62,57546,10.19,73822.3,-2.51,-38.79,-39.15,0,*58
1485158669.87,57547,10.19,73820.5,-2.49,-38.67,-39.23,0,*5A
1485158671.12,57548,10.19,73822.0,-2.49,-38.67,-39.15,0,*50
1485158672.35,57549,10.19,73826.0,-2.49,-38.85,-39.41,0,*5C
1485158673.58,57550,10.19,73822.8,-2.49,-39.03,-39.65,0,*5D
1485158674.81,57551,10.19,73820.5,-2.49,-39.23,-39.65,0,*5E
1485158676.03,57552,10.19,73824.3,-2.45,-38.97,-39.59,0,*50
1485158677.29,57553,10.19,73824.8,-2.45,-39.23,-39.97,0,*5D
1485158678.55,57554,10.19,73820.0,-2.45,-39.23,-39.79,0,*5A
1485158679.78,57555,10.19,73822.3,-2.45,-38.97,-39.59,0,*57
1485158681.05,57556,10.19,73826.0,-2.43,-39.15,-39.71,0,*53
1485158682.29,57557,10.19,73824.5,-2.43,-39.09,-39.59,0,*55
1485158683.52,57558,10.19,73820.3,-2.43,-38.61,-39.23,0,*58
1485158684.79,57559,10.19,73822.0,-2.43,-39.15,-39.79,0,*54
1485158686.05,57560,10.19,73822.0,-2.43,-39.53,-40.09,0,*55
1485158687.32,57561,10.19,73822.0,-2.45,-39.15,-39.79,0,*59
1485158688.55,57562,10.25,73826.5,-2.43,-38.73,-39.15,0,*57
1485158689.76,57563,10.19,73824.5,-2.43,-38.55,-39.09,0,*5F
1485158690.99,57564,10.19,73826.0,-2.43,-38.73,-39.23,0,*54
1485158692.25,57565,10.19,73824.5,-2.39,-38.67,-39.15,0,*58
1485158693.53,57566,10.19,73822.0,-2.41,-38.91,-39.29,0,*52
1485158694.79,57567,10.19,73822.3,-2.39,-38.67,-39.29,0,*55
1485158696.04,57568,10.19,73822.3,-2.41,-39.29,-40.03,0,*58
1485158697.29,57569,10.19,73824.3,-2.39,-39.15,-39.91,0,*5C
1485158698.52,57570,10.19,73824.8,-2.39,-39.29,-39.91,0,*5B
1485158699.74,57571,10.25,73824.0,-2.39,-39.47,-40.03,0,*57
1485158700.98,57572,10.25,73824.5,-2.39,-39.65,-40.29,0,*5C
1485158702.23,57573,10.19,73820.5,-2.39,-39.15,-39.65,0,*5C
1485158703.47,57574,10.19,73822.8,-2.39,-39.09,-39.53,0,*53
1485158704.68,57575,10.19,73822.5,-2.39,-39.35,-39.91,0,*53
1485158705.94,57576,10.25,73824.5,-2.35,-38.91,-39.53,0,*5D
1485158707.16,57577,10.19,73816.5,-2.37,-38.97,-39.47,0,*5D
1485158708.39,57578,10.19,73820.8,-2.37,-38.97,-39.47,0,*52
1485158709.68,57579,10.19,73822.5,-2.37,-39.03,-39.59,0,*50
1485158710.94,57580,10.19,73820.3,-2.37,-39.03,-39.65,0,*59
1485158712.23,57581,10.19,73822.5,-2.37,-39.23,-39.79,0,*57
1485158713.49,57582,10.25,73822.5,-2.37,-39.41,-40.03,0,*53
1485158714.73,57583,10.19,73824.3,-2.35,-39.71,-40.15,0,*54
1485158715.98,57584,10.25,73824.5,-2.35,-39.79,-40.53,0,*59
1485158717.24,57585,10.19,73820.8,-2.37,-39.47,-39.97,0,*51
1485158718.51,57586,10.25,73822.0,-2.37,-39.09,-39.79,0,*58
1485158719.77,57587,10.25,73824.0,-2.37,-39.23,-39.85,0,*52
1485158721.04,57588,10.19,73820.5,-2.35,-39.15,-39.79,0,*59
1485158722.28,57589,10.19,73820.3,-2.37,-39.47,-40.03,0,*5E
1485158723.54,57590,10.25,73822.0,-2.35,-39.41,-39.97,0,*51
1485158724.8,57591,10.25,73820.8,-2.37,-39.65,-40.21,0,*57
1485158726.06,57592,10.25,73822.5,-2.35,-39.03,-39.71,0,*5D
1485158727.3,57593,10.25,73820.8,-2.35,-39.23,-39.91,0,*50
1485158728.54,57594,10.25,73820.5,-2.35,-39.03,-39.91,0,*55
1485158729.8,57595,10.25,73822.3,-2.35,-39.41,-40.09,0,*5D
1485158731.04,57596,10.25,73822.5,-2.37,-39.47,-40.15,0,*57
1485158732.31,57597,10.25,73820.0,-2.35,-40.09,-40.59,0,*58
1485158733.53,57598,10.25,73822.0,-2.35,-39.65,-40.15,0,*5B
1485158734.79,57599,10.25,73826.0,-2.37,-40.03,-40.59,0,*5E
1485158736.06,57600,10.25,73822.0,-2.35,-39.41,-40.09,0,*52
1485158737.3,57601,10.25,73820.8,-2.37,-39.47,-40.15,0,*5A
1485158738.54,57602,10.25,73820.5,-2.37,-39.65,-40.15,0,*59
1485158739.8,57603,10.25,73818.3,-2.35,-39.53,-39.97,0,*5B
1485158741.01,57604,10.25,73824.5,-2.35,-39.47,-40.15,0,*5D
1485158742.25,57605,10.19,73818.8,-2.35,-39.41,-39.91,0,*58
1485158743.49,57606,10.25,73824.8,-2.37,-39.47,-40.03,0,*5A
1485158744.73,57607,10.25,73824.0,-2.37,-39.47,-40.15,0,*5C
1485158745.99,57608,10.25,73826.3,-2.37,-39.23,-39.85,0,*56
1485158747.23,57609,10.25,73820.3,-2.35,-39.71,-40.35,0,*57
1485158748.52,57610,10.25,73824.8,-2.37,-39.97,-40.41,0,*56
1485158749.8,57611,10.25,73824.0,-2.37,-39.29,-39.97,0,*57
1485158751.03,57612,10.25,73824.3,-2.35,-39.35,-39.97,0,*5B
1485158752.27,57613,10.19,73820.3,-2.35,-39.35,-39.97,0,*5A
1485158753.5,57614,10.25,73822.3,-2.35,-39.23,-39.91,0,*5C
1485158754.79,57615,10.25,73826.3,-2.37,-39.03,-39.59,0,*59
1485158756.06,57616,10.25,73826.3,-2.35,-39.03,-39.59,0,*58
1485158757.32,57617,10.25,73824.8,-2.35,-39.03,-39.79,0,*5B
1485158758.55,57618,10.25,73826.0,-2.35,-38.97,-39.59,0,*5A
1485158759.79,57619,10.25,73824.0,-2.33,-39.35,-39.91,0,*50
1485158761.08,57620,10.25,73826.0,-2.33,-39.79,-40.21,0,*57
1485158762.37,57621,10.25,73824.0,-2.33,-39.41,-39.97,0,*5E
1485158763.63,57622,10.25,73824.8,-2.33,-39.41,-39.85,0,*5E
1485158764.92,57623,10.25,73822.8,-2.33,-39.41,-39.97,0,*5C
1485158766.13,57624,10.25,73822.8,-2.31,-39.47,-40.03,0,*5C
1485158767.42,57625,10.25,73824.3,-2.33,-39.53,-40.09,0,*50
1485158768.68,57626,10.25,73820.8,-2.33,-39.41,-39.91,0,*5F
1485158769.95,57627,10.25,73822.8,-2.31,-39.59,-40.09,0,*5A
1485158771.24,57628,10.25,73822.0,-2.33,-39.41,-39.97,0,*57
1485158772.48,57629,10.25,73820.8,-2.33,-39.35,-39.91,0,*53
1485158773.72,57630,10.25,73822.3,-2.31,-39.47,-40.09,0,*53
1485158774.99,57631,10.25,73822.0,-2.33,-39.59,-40.15,0,*52
1485158776.28,57632,10.25,73822.5,-2.33,-39.41,-39.97,0,*5C
1485158777.49,57633,10.25,73826.3,-2.31,-38.97,-39.65,0,*58
1485158778.74,57634,10.25,73824.3,-2.33,-38.97,-39.53,0,*58
1485158780.0,57635,10.25,73822.5,-2.31,-39.29,-39.71,0,*5F
1485158781.29,57636,10.25,73820.5,-2.33,-39.23,-39.79,0,*5C
1485158782.53,57637,10.25,73824.8,-2.31,-39.35,-40.09,0,*51
1485158783.75,57638,10.25,73820.3,-2.31,-39.47,-40.03,0,*51
1485158784.96,57639,10.25,73820.8,-2.31,-39.47,-40.03,0,*50
1485158786.2,57640,10.25,73824.0,-2.31,-39.65,-40.29,0,*56
1485158787.41,57641,10.25,73822.3,-2.31,-40.03,-40.47,0,*51
1485158788.65,57642,10.25,73820.5,-2.33,-39.35,-39.91,0,*5E
1485158789.89,57643,10.25,73820.5,-2.31,-39.65,-40.29,0,*55
1485158791.11,57644,10.25,73820.0,-2.31,-39.35,-39.91,0,*5A
1485158792.32,57645,10.25,73826.8,-2.31,-39.35,-39.85,0,*5E
1485158793.58,57646,10.25,73822.5,-2.31,-39.53,-40.09,0,*57
1485158794.82,57647,10.25,73824.0,-2.31,-39.15,-39.85,0,*5E
1485158796.07,57648,10.25,73822.0,-2.31,-39.09,-39.71,0,*57
1485158797.32,57649,10.25,73822.8,-2.31,-38.91,-39.53,0,*56
1485158798.55,57650,10.25,73824.3,-2.31,-38.97,-39.53,0,*58
1485158799.8,57651,10.25,73820.8,-2.29,-38.91,-39.35,0,*56
1485158801.01,57652,10.25,73826.3,-2.27,-38.85,-39.47,0,*5B
1485158802.25,57653,10.25,73824.3,-2.27,-39.09,-39.79,0,*52
1485158803.48,57654,10.25,73824.0,-2.27,-39.23,-39.85,0,*5E
1485158804.72,57655,10.25,73824.3,-2.27,-39.09,-39.79,0,*54
1485158805.96,57656,10.25,73826.8,-2.29,-39.47,-40.03,0,*50
1485158807.2,57657,10.25,73824.3,-2.27,-39.03,-39.65,0,*51
1485158808.42,57658,10.25,73824.3,-2.27,-39.29,-39.85,0,*58
1485158809.66,57659,10.25,73822.5,-2.29,-38.97,-39.65,0,*5D
1485158810.9,57660,10.25,73820.5,-2.27,-39.09,-39.79,0,*52
1485158812.13,57661,10.25,73822.8,-2.27,-39.29,-39.85,0,*52
1485158813.36,57662,10.25,73824.0,-2.23,-39.29,-39.85,0,*55
1485158814.62,57663,10.25,73820.3,-2.23,-39.23,-39.79,0,*5D
1485158815.86,57664,10.25,73824.0,-2.27,-39.41,-39.85,0,*59
1485158817.09,57665,10.25,73824.0,-2.27,-39.65,-40.29,0,*56
1485158818.36,57666,10.25,73822.8,-2.27,-39.79,-40.29,0,*58
1485158819.63,57667,10.25,73824.8,-2.27,-39.79,-40.29,0,*59
1485158820.87,57668,10.25,73820.5,-2.27,-39.65,-40.09,0,*59
1485158822.13,57669,10.25,73824.8,-2.27,-39.29,-39.79,0,*59
1485158823.4,57670,10.25,73822.8,-2.27,-39.23,-39.79,0,*5B
1485158824.66,57671,10.25,73820.8,-2.27,-39.79,-40.29,0,*5E
1485158825.93,57672,10.25,73822.3,-2.27,-39.97,-40.59,0,*5A
1485158827.2,57673,10.25,73822.8,-2.27,-39.59,-40.09,0,*5C
1485158828.42,57674,10.25,73822.0,-2.27,-39.09,-39.65,0,*5A
1485158829.65,57675,10.25,73824.0,-2.27,-38.85,-39.41,0,*58
1485158830.91,57676,10.25,73820.5,-2.27,-39.03,-39.59,0,*5D
1485158832.17,57677,10.25,73820.3,-2.23,-39.41,-39.97,0,*5C
1485158833.43,57678,10.25,73822.0,-2.23,-39.41,-39.97,0,*53
1485158834.66,57679,10.25,73820.5,-2.23,-38.91,-39.47,0,*53
1485158835.92,57680,10.25,73816.0,-2.23,-39.03,-39.59,0,*50
1485158837.21,57681,10.25,73820.8,-2.21,-39.23,-39.71,0,*5B
1485158838.5,57682,10.25,73822.8,-2.21,-39.15,-39.71,0,*5D
1485158839.76,57683,10.25,73822.8,-2.23,-39.23,-39.79,0,*53
1485158840.99,57684,10.25,73822.0,-2.23,-39.41,-39.85,0,*53
1485158842.23,57685,10.25,73820.0,-2.21,-39.35,-39.91,0,*56
1485158843.46,57686,10.25,73822.3,-2.21,-39.35,-39.91,0,*55
1485158844.75,57687,10.31,73824.5,-2.21,-39.15,-39.71,0,*58
1485158846.04,57688,10.25,73822.3,-2.21,-39.15,-39.71,0,*57
1485158847.34,57689,10.25,73820.5,-2.21,-39.15,-39.79,0,*5E
1485158848.62,57690,10.25,73822.0,-2.21,-39.03,-39.59,0,*53
1485158849.91,57691,10.25,73820.3,-2.21,-39.03,-39.59,0,*52
1485158851.16,57692,10.25,73820.5,-2.21,-38.85,-39.53,0,*54
1485158852.39,57693,10.25,73816.3,-2.19,-38.79,-39.35,0,*5D
1485158853.66,57694,10.25,73822.8,-2.17,-38.91,-39.53,0,*52
1485158854.92,57695,10.31,73822.5,-2.17,-39.15,-39.91,0,*50
1485158856.18,57696,10.31,73824.5,-2.19,-39.15,-39.79,0,*5B
1485158857.44,57697,10.25,73822.5,-2.19,-39.23,-39.71,0,*57
1485158858.69,57698,10.25,73820.0,-2.19,-39.23,-39.71,0,*58
1485158859.92,57699,10.25,73822.3,-2.17,-39.35,-39.91,0,*5E
1485158861.18,57700,10.25,73822.8,-2.17,-39.41,-39.91,0,*5C
1485158862.43,57701,10.25,73822.3,-2.19,-39.53,-39.97,0,*56
1485158863.66,57702,10.25,73818.8,-2.17,-39.47,-39.91,0,*58
1485158864.87,57703,10.25,73820.3,-2.19,-39.47,-39.91,0,*57
1485158866.08,57704,10.31,73824.0,-2.19,-39.85,-40.35,0,*5E
1485158867.31,57705,10.25,73822.0,-2.17,-39.47,-40.15,0,*5D
1485158868.57,57706,10.31,73820.3,-2.17,-39.65,-40.29,0,*51
1485158869.82,57707,10.31,73824.0,-2.17,-39.29,-39.85,0,*50
1485158871.06,57708,10.31,73822.0,-2.17,-38.97,-39.53,0,*50
1485158872.33,57709,10.25,73822.5,-2.17,-39.15,-39.91,0,*54
1485158873.56,57710,10.25,73820.0,-2.17,-39.35,-39.91,0,*5E
1485158874.78,57711,10.25,73822.0,-2.17,-39.35,-39.85,0,*5A
1485158876.02,57712,10.31,73824.5,-2.17,-39.85,-40.53,0,*57
1485158877.25,57713,10.25,73820.0,-2.17,-39.85,-40.47,0,*53
1485158878.5,57714,10.25,73820.0,-2.17,-39.97,-40.65,0,*57
1485158879.76,57715,10.25,73820.8,-2.17,-39.47,-39.97,0,*58
1485158881.0,57716,10.25,73820.0,-2.17,-39.09,-39.65,0,*5C
1485158882.23,57717,10.25,73820.3,-2.19,-39.53,-40.15,0,*55
1485158883.46,57718,10.25,73818.0,-2.17,-39.35,-39.91,0,*56
1485158884.67,57719,10.31,73820.5,-2.17,-38.97,-39.47,0,*55
1485158885.92,57720,10.31,73824.5,-2.17,-39.29,-39.85,0,*55
1485158887.18,57721,10.25,73820.3,-2.17,-39.53,-40.15,0,*5E
1485158888.41,57722,10.31,73820.5,-2.19,-39.91,-40.41,0,*5C
1485158889.67,57723,10.25,73820.8,-2.17,-39.85,-40.29,0,*58
1485158890.91,57724,10.31,73820.5,-2.17,-39.85,-40.47,0,*57
1485158892.14,57725,10.31,73820.5,-2.17,-39.85,-40.47,0,*56
1485158893.38,57726,10.31,73820.3,-2.19,-39.91,-40.41,0,*58
1485158894.64,57727,10.31,73822.0,-2.17,-39.65,-40.09,0,*50
1485158895.9,57728,10.31,73820.5,-2.17,-39.65,-40.29,0,*5D
1485158897.13,57729,10.31,73820.8,-2.17,-39.85,-40.35,0,*5F
1485158898.39,57730,10.31,73820.0,-2.19,-39.79,-40.21,0,*5F
1485158899.65,57731,10.31,73822.0,-2.17,-39.65,-40.09,0,*57